sat.trackr.live / text

‹ back to catalog

STARLINK-37347

NORAD 68746 · 2026-082U

PAYLOAD ACTIVE UNKNOWN

§ Identity

Operator
Country
US
Launch date
2026-04-15
Launch site
AFWTR
Launch vehicle
Mass (kg)
RCS (m²)

Purposes: comms

External: N2YO · Heavens-Above · Gunter

§ Orbital elements

Epoch: 2026-05-25T04:00:03.998880Z

Period
92.95 min
Inclination
97.2867°
Eccentricity
0.0001879
Mean motion
15.49225897 rev/d
Perigee alt
417.7 km
Apogee alt
420.3 km
Semi-major
6,797.1 km
B*
-2.6166e-4
RAAN
8.7852°
Arg perigee
71.9230°
Mean anomaly
39.2525°
Rev number
600

§ Raw data

STARLINK-373471 68746U 26082U   26145.16671295 -.00014314  00000+0 -26166-3 0  99922 68746  97.2867   8.7852 0001879  71.9230  39.2525 15.49225897  6003

JSON: /api/v1/satellites/68746 · /tle

For live sub-satellite position, see the globe view (requires WebGL).

§ Visibility from observer

Set your observer location to see the next 7 days of passes ≥ 10°. The values pass through the URL so the page stays shareable.

No JS? Fill the form by hand. The geolocation button needs JavaScript.